DECAYED

STARLINK-5693, 55482 (Decayed)

Orbit data source: Space-Track

STARLINK-5693, 55482 was a payload satellite owned by SpaceX/Seattle (US) in LEO that was launched on Thu, 02 Feb 2023 UTC via an FALCON 9 launch vehicle from the Air Force Eastern Test Range (AFETR). Payload-class satellites include a variety of spacecraft equipped with specific instruments for various scientific and technological missions. These include communications satellites like Starlink; space stations such as the ISS; scientific satellites like the Hubble; Earth observation satellites from companies like Planet Labs, Umbra, and HawkEye 360; GPS; miniature CubeSats for education and research; and military/defense satellites.

Not visible in the next 10 days
Identifier
55482, 2023-015AK
Orbit
Decayed
Country
Flag of USUS
Related business
Manufacturer
SpaceX/Seattle
Mission
Decayed Commercial Communications
Bus & Motor
STARLINK, Unknown motor
Mass
305 kg wet, ~290 kg dry
Launch date (UTC)
2023-02-02 (3 years ago)
Launch vehicle
FALCON 9
Launch site
Air Force Eastern Test Range (AFETR)
Object type
Payload
Rocket body
Debris
Shape & HBR
Box + 1 Pan, 10.1 m
Radar Cross Section
13.562 m², Large (>1 m²)

Expand to show TLE details & history
Last TLE update: 11 months ago

TLE from 11 months ago
0 STARLINK-5693
1 55482U 23015AK  25029.05860583  .25797387  95571-5  21671-3 0  9998
2 55482  42.9852 348.1107 0008572 274.4437 140.4065 16.51422629109898
Epoch: 2025-01-29T01:24Z
TLE epoch observation values (Epoch: 2025-01-29T01:24:23.543Z)
Latitude
34.04691°
Longitude
-115.42331°
Altitude
141.107 km
Speed
7.824 km/s
True Right ascension
02h 16m 55s
True Declination
33° 52' 21"
Sunlit
Object was in daylight at epoch
Visualization orbit readout
Latitude
Unknown
Longitude
Unknown
Altitude
Unknown
Speed
Unknown
Apparent Right ascension
Unknown
Apparent Declination
Unknown
Sunlit
N/A
Visualization observer readout
Local Sidereal Time
06:22:33
Azimuth
Unknown
Elevation
Unknown
Doppler factor
Unknown
Orbital elements
Apogee altitude
143.229 km
Perigee altitude
132.058 km
Semi-major axis
6,515.78 km
Eccentricity
0.00086
Inclination
42.9852°
RAAN
348.1107°
Arg. of periapsis
274.4437°
True anomaly
140.46905°
Mean anomaly
140.4065°
Eccentric anomaly
140.43778°
Mean motion
4.12661 °/min
Orbital period
87.24 mins
BSTAR
0.00021671
Loading maneuver chart data...
Computing Atmospheric mass density...
Loading historical data...
Loading historical data...
Loading historical data...
Loading historical data...
Loading historical data...
Loading historical data...
Loading historical data...

Documentation

Showing up to 5 results
|